Weather Roundup
Issued by NWS

Home | Current Version | Previous Version | Graphics & Text | Print | Product List | Glossary Off
Versions: 1 2 3 4 5 6 7 8 9 10 11 12 13 14 15 16 17 18 19 20 21 22 23 24 25 26 27 28 29 30 31 32 33 34 35 36 37 38 39 40 41 42 43 44 45 46 47 48 49 50

815
NZUS93 KARX 220459
HRRWXR

CURRENT HOURLY OBSERVATIONS ACROSS
MUCH OF THE UPPER MISSISSIPPI VALLEY
NATIONAL WEATHER SERVICE LA CROSSE WI
1100 PM CST TUE FEB 21 2017


...SOUTHEAST MINNESOTA...


CITY           SKY/WX    TMP DP  RH WIND       PRES   REMARKS
ROCHESTER      CLEAR     45  39  79 S14       29.73F
ROCHESTER/MAYO FAIR      50  39  66 S14       29.73S
WINONA         CLEAR     52  37  58 S7        29.73F
AUSTIN         CLEAR     45  37  76 S5        29.73F
ALBERT LEA     CLEAR     48  39  71 W3        29.73S
DODGE CENTER   NOT AVBL
PRESTON        CLEAR     47  38  71 S15       29.75F
OWATONNA       CLEAR     46  39  76 S10       29.71F
FARIBAULT      PTCLDY    37  37 100 CALM      29.71F FOG
$$

...ELSEWHERE IN MINNESOTA...


CITY           SKY/WX    TMP DP  RH WIND       PRES   REMARKS
MINNEAPOLIS    PTCLDY    48  42  80 CALM      29.68F
INTNL FALLS    CLOUDY    34  31  88 CALM      29.66F
DULUTH         CLOUDY    42  37  82 W8        29.66F
RED WING       CLEAR     46  39  76 CALM      29.70F
REDWOOD FALLS  PTCLDY    44  39  82 CALM      29.67S
MANKATO          N/A     44  42  93 SE7       29.69F
WORTHINGTON    CLEAR     48  37  65 S9        29.68F
FAIRMONT       CLEAR     41  39  93 S9        29.71F
$$

...SOUTHWEST WISCONSIN...


CITY           SKY/WX    TMP DP  RH WIND       PRES   REMARKS
LA CROSSE      PTCLDY    50  41  71 S12       29.75F
PRAIRIE DU CHI CLEAR     41  36  80 CALM      29.81S
BOSCOBEL       CLEAR     45  38  76 SW6       29.81F
LONE ROCK      NOT AVBL
PLATTEVILLE    CLEAR     48  41  75 S8        29.83F
FORT MC COY    PTCLDY    38  34  87 CALM      29.78F
MAUSTON-NEW LI MOCLDY    52  38  59 S7        29.78S
VIROQUA        FAIR      46  38  76 S6        29.79S
WIS DELLS      CLEAR     51  36  55 SW13      29.80R
$$

...ELSEWHERE IN WISCONSIN...


CITY           SKY/WX    TMP DP  RH WIND       PRES   REMARKS
MILWAUKEE      PTCLDY    45  41  86 S3        29.84F FOG
MADISON        PTCLDY    51  39  63 S9        29.82F
GREEN BAY      CLOUDY    48  39  71 SW5       29.79R
EAU CLAIRE     NOT AVBL
BLACK RVR FLS  FAIR      34  34 100 CALM      29.74F
MEDFORD        PTCLDY    44  34  70 S7        29.73F
WAUSAU         CLOUDY    47  32  56 SW9       29.73F
WIS RAPIDS     CLOUDY    47  35  63 SW7       29.77F
MARSHFIELD     CLEAR     47  33  58 S9        29.73F
RICE LAKE      PTCLDY    46  40  79 CALM      29.71S
$$

...NORTHEAST IOWA...


CITY           SKY/WX    TMP DP  RH WIND       PRES   REMARKS
WATERLOO       CLEAR     47  37  68 S10       29.78F
DUBUQUE        CLEAR     42  37  82 S7        29.82F
DECORAH        CLEAR     50  37  62 S9G16     29.77S
MASON CITY     CLEAR     42  37  82 S9        29.74F
CHARLES CITY   CLEAR     46  41  81 S12       29.76F
OELWEIN        PTCLDY    43  37  81 S10       29.80F
$$

...ELSEWHERE IN IOWA...


CITY           SKY/WX    TMP DP  RH WIND       PRES   REMARKS
DES MOINES     CLEAR     51  33  50 S9        29.80F
IOWA CITY      CLEAR     43  38  82 CALM      29.85S
FORT DODGE     CLEAR     46  37  71 S10       29.74F
MARSHALLTOWN   CLEAR     45  36  70 SE8       29.78F
CEDAR RAPIDS   CLEAR     47  39  74 S5        29.82F
$$

...NORTHERN ILLINOIS...


CITY           SKY/WX    TMP DP  RH WIND       PRES   REMARKS
CHICAGO-OHARE  PTCLDY    50  48  93 CALM      29.85F FOG
CHICAGO-MIDWAY PTCLDY    57  51  80 S5        29.86F
MOLINE         CLEAR     47  43  86 CALM      29.84S
ROCKFORD       CLEAR     45  41  86 SE3       29.86F
PEORIA         PTCLDY    54  54 100 S7        29.86F FOG
$$

NOTE: "FAIR" INDICATES FEW OR NO CLOUDS BELOW 12,000 FEET WITH NO
SIGNIFICANT WEATHER AND/OR OBSTRUCTIONS TO VISIBILITY. WIND
SPEEDS ARE IN MILES-PER-HOUR.




USA.gov is the U.S. government's official web portal to all federal, state and local government web resources and services.